Lancaster, PA

8:10 PM EST on February 27, 2017 (GMT -0500)
Lancaster

Weather History for KLNS - January, 2013

Change the Weather History Date:

Saturday, January 12, 2013

  Actual Average Record
Temperature  
Mean Temperature 44 °F -  
Max Temperature 50 °F 35 °F 64 °F (2017)
Min Temperature 39 °F 18 °F -2 °F (1981)
Degree Days  
Heating Degree Days 20    
Moisture  
Dew Point 41 °F    
Average Humidity 93    
Maximum Humidity 100    
Minimum Humidity 80    
Precipitation  
Precipitation 0.00 in - - ()
Sea Level Pressure  
Sea Level Pressure 30.13 in    
Wind  
Wind Speed 2 mph (NNE)    
Max Wind Speed 6 mph    
Max Gust Speed -    
Visibility 1 miles    
Events Fog    
Averages and records for this station are not official NWS values.
T = Trace of Precipitation, MM = Missing Value Source: NWS Daily Summary

Daily Weather History Graph

Daily Weather History Graph

Search for Another Location

Airport or City:

Trip Planner

Search our weather history database for the weather conditions in past years. The results will help you decide how hot, cold, wet, or windy it might be!

Date:

Astronomy

Jan. 12, 2013 Rise Set
Actual Time 7:26 AM EST 5:01 PM EST
Civil Twilight 6:56 AM EST 5:31 PM EST
Nautical Twilight 6:22 AM EST 6:04 PM EST
Astronomical Twilight 5:50 AM EST 6:37 PM EST
Moon 7:43 AM EST (1/12) 6:27 PM EST (1/12)
Length of Visible Light 10h 34m
Length of Day
9h 34m
New Moon, 1% of the Moon is Illuminated
Jan 12
New Moon
Jan 18
First Quarter
Jan 26
Full
Feb 3
Last Quarter
Feb 10
New

Hourly Weather History & Observations

Time (EST) Temp. Windchill Dew Point Humidity Pressure Visibility Wind Dir Wind Speed Gust Speed Precip Events Conditions
12:08 AM 41.0 °F - 39.2 °F 93% 30.09 in 2.0 mi Calm Calm - N/A   Overcast
12:41 AM 41.0 °F - 39.2 °F 93% 30.09 in 0.8 mi Calm Calm - N/A   Overcast
12:53 AM 41.0 °F - 39.0 °F 93% 30.10 in 0.8 mi Calm Calm - N/A   Overcast
1:01 AM 41.0 °F 39.0 °F 39.2 °F 93% 30.10 in 0.8 mi West 3.5 mph - N/A   Overcast
1:30 AM 41.0 °F - 39.2 °F 93% 30.09 in 0.2 mi Calm Calm - N/A Fog Fog
1:53 AM 41.0 °F - 39.0 °F 93% 30.10 in 0.2 mi Calm Calm - N/A Fog Fog
2:13 AM 41.0 °F - 39.2 °F 93% 30.09 in 0.5 mi Calm Calm - N/A Fog Fog
2:36 AM 41.0 °F - 39.2 °F 93% 30.10 in 0.2 mi Calm Calm - N/A Fog Fog
3:53 AM 41.0 °F - 39.9 °F 96% 30.12 in 0.2 mi Calm Calm - N/A Fog Fog
4:41 AM 39.2 °F 37.0 °F 39.2 °F 100% 30.10 in 0.2 mi WNW 3.5 mph - N/A Fog Fog
4:53 AM 39.9 °F 36.7 °F 39.0 °F 97% 30.12 in 0.2 mi WNW 4.6 mph - N/A Fog Fog
5:08 AM 39.2 °F 35.0 °F 39.2 °F 100% 30.11 in 0.2 mi West 5.8 mph - N/A Fog Fog
5:18 AM 39.2 °F 35.9 °F 39.2 °F 100% 30.11 in 0.2 mi WNW 4.6 mph - N/A Fog Fog
5:53 AM 39.9 °F 36.7 °F 39.0 °F 97% 30.14 in 0.2 mi WNW 4.6 mph - N/A Fog Fog
6:53 AM 39.9 °F 37.8 °F 39.0 °F 97% 30.14 in 0.2 mi West 3.5 mph - N/A Fog Fog
7:53 AM 39.9 °F 37.8 °F 39.0 °F 97% 30.17 in 0.2 mi West 3.5 mph - N/A Fog Fog
8:53 AM 41.0 °F - 39.9 °F 96% 30.17 in 0.2 mi Calm Calm - N/A Fog Fog
9:53 AM 42.1 °F - 41.0 °F 96% 30.17 in 0.2 mi Calm Calm - N/A Fog Fog
10:07 AM 42.8 °F - 41.0 °F 93% 30.17 in 0.5 mi Calm Calm - N/A Fog Fog
10:20 AM 42.8 °F - 41.0 °F 93% 30.17 in 1.2 mi Calm Calm - N/A   Overcast
10:41 AM 42.8 °F - 42.8 °F 100% 30.17 in 2.0 mi Calm Calm - N/A   Overcast
10:53 AM 43.0 °F - 41.0 °F 93% 30.17 in 1.8 mi Calm Calm - N/A   Overcast
11:11 AM 42.8 °F - 41.0 °F 93% 30.15 in 2.5 mi Calm Calm - N/A   Overcast
11:42 AM 44.6 °F - 42.8 °F 93% 30.14 in 3.0 mi Calm Calm - N/A   Overcast
11:53 AM 45.0 °F - 42.1 °F 90% 30.14 in 3.0 mi Calm Calm - N/A   Overcast
12:53 PM 46.9 °F - 43.0 °F 86% 30.14 in 3.0 mi WSW 3.5 mph - N/A   Overcast
1:53 PM 48.9 °F - 43.0 °F 80% 30.13 in 4.0 mi ESE 3.5 mph - N/A   Haze
2:33 PM 50.0 °F - 44.6 °F 82% 30.12 in 3.0 mi ENE 4.6 mph - N/A   Haze
2:53 PM 50.0 °F - 44.1 °F 80% 30.12 in 4.0 mi ENE 3.5 mph - N/A   Haze
3:53 PM 50.0 °F - 44.1 °F 80% 30.13 in 4.0 mi ENE 3.5 mph - N/A   Haze
4:53 PM 46.0 °F 43.9 °F 42.1 °F 86% 30.15 in 3.0 mi North 4.6 mph - N/A   Clear
5:00 PM 44.6 °F 42.2 °F 42.8 °F 93% 30.15 in 2.5 mi North 4.6 mph - N/A   Clear
5:25 PM 44.6 °F - 42.8 °F 93% 30.14 in 3.0 mi Calm Calm - N/A   Clear
5:53 PM 44.1 °F 42.5 °F 42.1 °F 93% 30.15 in 3.0 mi East 3.5 mph - N/A   Clear
6:44 PM 44.6 °F - 42.8 °F 93% 30.14 in 2.5 mi Calm Calm - N/A   Clear
6:53 PM 44.1 °F - 42.1 °F 93% 30.16 in 2.0 mi Calm Calm - N/A   Clear
7:16 PM 42.8 °F - 41.0 °F 93% 30.16 in 1.5 mi Calm Calm - N/A   Clear
7:53 PM 43.0 °F 41.3 °F 41.0 °F 93% 30.15 in 1.0 mi East 3.5 mph - N/A   Clear
8:00 PM 42.8 °F 41.1 °F 41.0 °F 93% 30.14 in 0.8 mi East 3.5 mph - N/A   Clear
8:04 PM 42.8 °F 40.1 °F 41.0 °F 93% 30.14 in 0.5 mi East 4.6 mph - N/A Fog Fog
8:12 PM 42.8 °F 40.1 °F 39.2 °F 87% 30.13 in 0.2 mi East 4.6 mph - N/A Fog Fog
8:23 PM 42.8 °F 41.1 °F 41.0 °F 93% 30.13 in 0.2 mi East 3.5 mph - N/A Fog Fog
8:53 PM 41.0 °F 39.0 °F 39.9 °F 96% 30.14 in 0.2 mi East 3.5 mph - N/A Fog Fog
9:53 PM 41.0 °F 38.0 °F 39.9 °F 96% 30.12 in 0.2 mi NE 4.6 mph - N/A Fog Fog
10:53 PM 39.0 °F 36.8 °F 37.9 °F 96% 30.14 in 0.2 mi West 3.5 mph - N/A Fog Fog
11:53 PM 39.9 °F - 37.9 °F 93% 30.13 in 0.2 mi Calm Calm - N/A Fog Fog